FW6537 Weather Reports


time (UTC)temp
F
wind
direction
speed
knots
gust
knots
rain 1hr
in
rain 24hr
in
rain mn
in
humidity
%
barometer
mb
20260503003132 41 115 0.0 0.9 0.00 0.14 0.01 70 1013.0
20260503001652 42 116 0.0 0.9 0.00 0.14 0.01 68 1013.1
20260503000146 43 108 0.0 3.5 0.00 0.14 0.01 67 1013.0
20260502234641 44 104 0.0 0.9 0.00 0.17 0.01 66 1012.8
20260502233139 44 184 0.9 4.3 0.00 0.17 0.01 64 1012.6
20260502231638 45 53 2.6 7.8 0.00 0.17 0.01 61 1012.6
20260502230130 45 95 2.6 6.1 0.00 0.17 0.01 60 1012.7
20260502224622 45 107 1.7 6.1 0.00 0.18 0.01 60 1012.5
20260502223208 46 141 0.9 7.0 0.00 0.18 0.01 61 1012.5
20260502221637 46 74 2.6 7.8 0.00 0.18 0.01 59 1012.6
20260502220137 46 58 1.7 5.2 0.00 0.18 0.01 60 1012.5
20260502214634 46 151 1.7 6.1 0.00 0.18 0.01 59 1012.3
20260502213153 46 104 0.9 5.2 0.00 0.18 0.01 58 1012.3
20260502211634 47 108 0.9 7.0 0.00 0.18 0.01 56 1012.3
20260502210135 47 84 1.7 6.1 0.00 0.18 0.01 56 1012.2
20260502204634 47 99 2.6 5.2 0.00 0.18 0.01 57 1012.3
20260502201638 46 95 0.9 4.3 0.00 0.18 0.01 61 1012.4
20260502200135 46 97 0.9 3.5 0.00 0.18 0.01 61 1012.6
20260502194627 46 145 0.9 2.6 0.00 0.18 0.01 61 1012.6
20260502193147 47 115 0.9 4.3 0.00 0.18 0.01 60 1012.9
20260502191622 46 89 0.9 3.5 0.00 0.18 0.01 61 1013.0
20260502190123 47 98 0.9 5.2 0.00 0.18 0.01 61 1012.8
20260502184633 47 129 1.7 5.2 0.00 0.18 0.01 61 1012.7
20260502181657 48 105 1.7 3.5 0.00 0.18 0.01 55 1012.5
20260502180130 48 98 0.9 5.2 0.00 0.18 0.01 56 1012.5
20260502170126 47 129 1.7 7.8 0.00 0.18 0.01 54 1012.5
20260502163201 48 97 2.6 7.0 0.00 0.18 0.01 52 1012.6
20260502161632 48 79 2.6 7.0 0.00 0.18 0.01 53 1012.7
20260502160124 47 141 1.7 5.2 0.00 0.18 0.01 56 1012.6
20260502151645 47 61 0.9 5.2 0.00 0.18 0.01 63 1012.9
20260502150135 47 95 2.6 7.8 0.00 0.18 0.01 65 1013.0
20260502051631 40 136 0.0 0.0 0.00 0.17 0.00 94 1012.0
20260502050133 40 136 0.0 0.0 0.00 0.17 0.00 93 1012.0
20260502044631 40 142 0.0 0.0 0.00 0.17 0.00 93 1012.0
20260502043208 40 143 0.0 0.0 0.00 0.17 0.00 93 1012.0
20260502041643 40 142 0.0 0.0 0.01 0.17 0.00 93 1012.0
20260502040218 40 144 0.0 0.0 0.02 0.17 0.00 93 1012.1
20260502034629 40 144 0.0 0.0 0.03 0.17 0.17 93 1011.8
20260502033129 40 144 0.0 0.0 0.04 0.17 0.17 92 1011.9
20260502031648 40 144 0.0 0.0 0.04 0.16 0.16 92 1012.0
20260502030146 40 144 0.0 1.7 0.04 0.15 0.15 92 1012.0
20260502024623 40 135 0.0 1.7 0.03 0.14 0.14 92 1012.0
20260502023139 40 136 0.0 1.7 0.03 0.13 0.13 91 1011.9
20260502021631 41 127 0.0 2.6 0.02 0.12 0.12 91 1011.9
20260502020151 41 155 0.9 4.3 0.02 0.11 0.11 91 1012.0
20260502014627 42 153 0.9 2.6 0.03 0.11 0.11 91 1011.9
20260502013129 42 139 0.0 1.7 0.03 0.10 0.10 90 1011.8
20260502011629 42 143 0.0 2.6 0.05 0.10 0.10 90 1011.7
20260502010148 43 129 0.0 1.7 0.05 0.09 0.09 90 1011.4
20260502004644 43 123 0.0 0.9 0.05 0.08 0.08 89 1011.5